Zurück zum Katalog

STARLINK-4337

AktivKommunikationSSO
NORAD 53053·PAYLOAD·🇺🇸 United States

Gestartet Jul 11, 2022 von Vandenberg Space Force Base

Loading…

Nächste Überflüge (nächste 24 Stunden)

TLE

AktuellSource: CelesTrak SupGP

Epoche: Sep 14, 2026, 21:58 UTC

1 53053C 22077L   26257.91576389  .00073245  00000+0  22734-2 0  2571
2 53053  97.2856  72.8615 0001728 100.5641  55.6641 15.33405323    16

Verfolge STARLINK-4337 in Echtzeit mit AllMySat

Download on the App Store